Home   Weather   Ica   Past weeks

Flag for Peru Past Weather in Ica, Ica, Peru — Yesterday and Last 2 Weeks

Now
66 °F

Scattered clouds.


Feels Like: 66 °F
Forecast: 57 / 77 °F
Wind: 10 mph from West

Location: Pisco Airport

Current Time: Jul 21, 2017 at 2:03:49 pm

Latest Report: Jul 21, 2017 at 1:00 pm


Visibility: N/A

Pressure: 29.98 "Hg

Humidity: 73%

Dew Point: 57 °F

Location of IcaLocation

Past Weather in Ica — Graph

°F

Ica Temperature Yesterday

Maximum temperature yesterday: 64 °F (at 12:00 pm)
Minimum temperature yesterday: 61 °F (at 4:00 am)
Average temperature yesterday: 63 °F

High & Low Weather Summary for the Past Weeks

 TemperatureHumidityPressure
High73 °F (Jul 16, 3:00 pm)94% (Jul 9, 5:00 am)30.12 "Hg (Jul 9, 5:00 am)
Low52 °F (Jul 9, 4:00 am)57% (Jul 16, 3:00 pm)29.86 "Hg (Jul 17, 4:00 pm)
Average63 °F80%29.98 "Hg
* Reported Jul 6 12:00 pm — Jul 21 12:00 pm, Ica. Weather by CustomWeather, © 2017

Note: Actual official high and low records may vary slightly from our data, if they occured in-between our weather recording intervals... More about our weather records

Advertising

Ica Weather History for the Previous 24 Hours

Scroll right to see more
 ConditionsComfort  
Time TempWeatherWind HumidityBarometerVisibility
12:00 pm
Fri, Jul 21
64 °FPartly sunny.8 mph73%30.01 "HgN/A
11:00 am64 °FOvercast.7 mph73%30.01 "HgN/A
10:00 am63 °FOvercast.5 mph77%30.01 "Hg5 mi
9:00 am63 °FOvercast.3 mph77%29.98 "Hg4 mi
8:00 am63 °FOvercast.3 mph77%29.98 "Hg4 mi
7:00 am63 °FOvercast.5 mph77%29.98 "Hg5 mi
6:00 am63 °FFog.2 mph77%29.95 "Hg3 mi
5:00 am63 °FOvercast.2 mph77%29.95 "Hg5 mi
4:00 am63 °FOvercast.2 mph77%29.95 "HgN/A
3:00 am63 °FOvercast.5 mph77%29.95 "HgN/A
2:00 am63 °FOvercast.2 mph77%29.98 "HgN/A
1:00 am63 °FOvercast.2 mph83%30.01 "HgN/A
12:00 am63 °FOvercast.5 mph83%30.04 "HgN/A
11:00 pm
Thu, Jul 20
63 °FOvercast.7 mph77%30.04 "HgN/A
10:00 pm64 °FOvercast.9 mph73%30.04 "HgN/A
9:00 pm64 °FOvercast.7 mph73%30.01 "HgN/A
8:00 pm64 °FOvercast.8 mph68%30.01 "HgN/A
7:00 pm64 °FOvercast.7 mph73%30.01 "HgN/A
6:00 pm64 °FOvercast.8 mph73%29.98 "HgN/A
5:00 pm64 °FOvercast.9 mph73%29.95 "HgN/A
4:00 pm64 °FOvercast.9 mph73%29.95 "HgN/A
3:00 pm64 °FOvercast.9 mph73%29.95 "HgN/A
2:00 pm64 °FOvercast.7 mph73%29.95 "HgN/A
Weather by CustomWeather, © 2017

See weather overviewHow to use our weather pages